Location: Unnamed
(51.5169°N, 0.1311°W)
Time: 05:55:10
(UTC+01:00)

Vanguard 1 - Pass Details

Date: 14 August 2024
Orbit: 649 x 3825 km, 34.2° (Epoch: 16 September)

Event Time Altitude Azimuth Distance (km) Brightness Sun altitude
Rises 02:45:26 0° 261° (W) 5,221 13.5 -20.7°
Reaches altitude 10° 02:48:45 10° 253° (WSW) 4,607 13.1 -20.5°
Maximum altitude 03:00:39 35° 194° (SSW) 4,073 12.6 -19.6°
Drops below altitude 10° 03:18:24 10° 139° (SE) 6,795 14.2 -18.2°
Sets 03:24:47 0° 132° (SE) 7,949 14.6 -17.6°
